CZ-2C R/B, 28222

Orbit data source: Space-Track

CZ-2C R/B, 28222 is space debris in SSO originally from a launch on Sun, 18 Apr 2004 UTC launched from the Xichang Space Center, China (XSC). Debris objects in space refer to the collection of defunct objects orbiting the Earth. Examples of debris include non-operational satellites, rocket bodies, and fragments generated from explosions, collisions, or faulty payload assembly.

Loading next visibility...
Identifier
28222, 2004-012C
Orbit
SSO
Country
Flag of CNCN / PRC
Related business
Manufacturer
CALT
Mission
Spacecraft
Bus & Motor
CZ-2 STAGE 2, Unknown motor
Mass
~3,800 kg wet, ~3,800 kg dry
Launch date (UTC)
2004-04-18 (22 years ago)
Launch vehicle
Unknown
Launch site
Xichang Space Center, China (XSC)
Object type
Payload
Rocket body
Debris
Shape & HBR
Cyl, 4.2 m
Radar Cross Section
26.048 m², Large (>1 m²)

Expand to show TLE details & history
Last TLE update: 17 hours ago

TLE from 17 hours ago
0 CZ-2C R/B
1 28222U 04012C   25348.92654265  .00028155  00000-0  40766-3 0  9991
2 28222  97.7425  41.7286 0016438 261.8135  98.1254 15.55702397191068
Epoch: 2025-12-14T22:14Z
TLE epoch observation values (Epoch: 2025-12-14T22:14:13.284Z)
Latitude
-0.00006°
Longitude
-15.65919°
Altitude
404.833 km
Speed
7.667 km/s
True Right ascension
02h 46m 54s
True Declination
0° 00' 00"
Sunlit
Object was in full shadow at epoch
Visualization orbit readout
Latitude
Unknown
Longitude
Unknown
Altitude
Unknown
Speed
Unknown
Apparent Right ascension
Unknown
Apparent Declination
Unknown
Sunlit
N/A
Visualization observer readout
Local Sidereal Time
13:21:48
Azimuth
Unknown
Elevation
Unknown
Doppler factor
Unknown
Orbital elements
Apogee altitude
408.182 km
Perigee altitude
385.908 km
Semi-major axis
6,775.182 km
Eccentricity
0.00164
Inclination
97.7425°
RAAN
41.7286°
Arg. of periapsis
261.8135°
True anomaly
98.31182°
Mean anomaly
98.1254°
Eccentric anomaly
98.21862°
Mean motion
3.8919 °/min
Orbital period
92.5 mins
BSTAR
0.00040766
Loading maneuver chart data...
Computing Atmospheric mass density...
Loading historical data...
Loading historical data...
Loading historical data...
Loading historical data...
Loading historical data...
Loading historical data...
Loading historical data...

Documentation

Showing up to 5 results
|